Miscellaneous Local Product
Issued by NWS North Platte, NE

Home | Current Version | Previous Version | Text Only | Print | Product List | Glossary On
Versions: 1 2 3 4 5 6 7 8 9 10 11 12 13 14 15 16 17 18 19 20 21 22 23 24 25 26 27 28 29 30 31 32 33 34 35 36 37 38 39 40 41 42 43 44 45 46 47 48 49 50
000
AXUS43 KLBF 301110
MISLBF


WESTERN AND NORTH CENTRAL NEBRASKA HOURLY WEATHER ROUNDUP
NATIONAL WEATHER SERVICE NORTH PLATTE NE
600 AM CDT SAT AUG 30 2014

***STATIONS NOT REPORTING VARIABLES SUCH AS SKY/WEATHER OR
PRESSURE ARE PROVIDED BY THE NEBRASKA DEPARTMENT OF
ROADS...RAWS...AND APRS NETWORKS...AND ARE NOT UNDER
NATIONAL WEATHER SERVICE QUALITY CONTROL***

...OBSERVATIONS IN AND NEAR THE EASTERN PANHANDLE OF NEBRASKA...

CITY           SKY/WX    TMP DP  RH WIND       PRES   REMARKS
PINE RIDGE     CLEAR     54  52  93 S3        29.98F
CHADRON        CLEAR     52  50  93 CALM      29.96F
ALLIANCE       CLEAR     52  50  93 S3        30.02F
SIDNEY         CLEAR     54  51  90 S7        30.06F
WHITECLAY        N/A     52  48  87 SE7         N/A
RUSHVILLE        N/A     49  47  95 S12         N/A
GORDON           N/A     53  53  99 S8          N/A
CRESCENT LAKE    N/A     55  54  96 S3          N/A
LISCO            N/A     60  54  81 NE6         N/A
BIG SPRINGS      N/A     55  53  94 CALM        N/A
$$

...OBSERVATIONS IN NORTH CENTRAL NEBRASKA...

CITY           SKY/WX    TMP DP  RH WIND       PRES   REMARKS
VALENTINE      CLEAR     53  52  96 CALM      29.99F
THEDFORD       CLEAR     52  51  97 CALM      30.02S
AINSWORTH      CLEAR     55  54  97 CALM      29.99F
O`NEILL        CLOUDY    60  60  99 N5        29.98S
ORD            CLEAR     57  55  93 NW5       29.97S
BROKEN BOW     CLEAR     56  54  93 CALM      30.00S
SPRINGVIEW       N/A     53  51  94 CALM        N/A
ROSE             N/A     59  59  99 N5          N/A
NEWPORT          N/A     56  56  99 CALM        N/A
COMSTOCK         N/A     62  60  94 CALM        N/A
CHAMBERS         N/A     60  59  96 E3          N/A
EWING            N/A     60  59  96 N5          N/A
$$

...OBSERVATIONS IN SOUTHWEST NEBRASKA AND FAR NORTHEAST COLORADO...

CITY           SKY/WX    TMP DP  RH WIND       PRES   REMARKS
WRAY             N/A    N/A N/A N/A CALM      30.05S
HOLYOKE        FAIR      59  55  88 SW5       30.05S
IMPERIAL       PTCLDY    58  55  90 CALM      30.03F
OGALLALA       PTCLDY    55  54  97 CALM      30.03S
NORTH PLATTE   PTCLDY    54  53  97 CALM      30.02S
MCCOOK         CLEAR     59  57  93 CALM      30.00F
LEXINGTON      CLEAR     57  56  95 NW3       30.00S
PAXTON           N/A     57  55  93 CALM        N/A
SUTHERLAND       N/A     53  50  92 CALM        N/A
BRADY            N/A     55  53  92 CALM        N/A
GOTHENBURG       N/A     58  53  85 W3          N/A
CALLAWAY         N/A     54  53  97 N5          N/A
$$

...SOME WEATHER OBSERVATIONS FROM AROUND THE REGION...

CITY           SKY/WX    TMP DP  RH WIND       PRES   REMARKS
DENVER         CLEAR     56  45  66 SW9       30.10S
LARAMIE        CLEAR     45  41  86 S6        30.17F
CHEYENNE       CLEAR     50  46  86 SW7       30.12F
SCOTTSBLUFF    CLEAR     54  53  97 E7        30.02F
RAPID CITY     CLEAR     54  52  93 S7        29.97F
PIERRE         CLEAR     51  51 100 N6        29.95F
WINNER         FOG       55  54  96 W3        29.98S VSB 1/4
SIOUX FALLS    CLOUDY    65  63  93 NW9       29.89S
OMAHA          CLEAR     63  61  93 NW6       29.89R
GRAND ISLAND   CLEAR     60  57  89 NW3       29.98R
KANSAS CITY    CLEAR     66  65  96 SW6       29.90R
WICHITA        CLEAR     64  62  93 S5        29.93R
HAYS           CLEAR     61  54  77 N6        29.99S
LIBERAL        PTCLDY    63  54  72 W5        30.06R
GOODLAND       CLEAR     56  54  93 W6        30.05S
$$



USA.gov is the U.S. government's official web portal to all federal, state and local government web resources and services.